[[{"header":{"parameterUnit":"m.s-1","parameterCategory":2,"la1":30.2992,"la2":30.254,"lo1":-89.0895,"lo2":-89.0443,"dy":0.0025,"dx":0.0025,"nx":19,"ny":19,"refTime":"2026-04-03T09:00:00:Z","depth":"0","parameterNumber":2,"parameterNumberName":"U-component_of_CURRENTS"},"data":[0,0,0,-0.1575,-0.1576,-0.1617,-0.1617,-0.1723,-0.1724,0,0,0,0,0,0,0,0,0,0,0,-0.1555,-0.1556,-0.1575,-0.1576,-0.1617,-0.1617,-0.1723,-0.1724,0,0,0,0,0,0,0,0,0,0,0,-0.1555,-0.1556,-0.1556,-0.1576,-0.1617,-0.1617,-0.1723,-0.1678,0,0,0,0,0,0,0,0,0,0,-0.163,-0.1596,-0.1556,-0.1556,-0.1576,-0.1617,-0.1617,-0.1675,-0.168,-0.1721,0,-0.1725,0,-0.1733,-0.1733,-0.1733,0,0,0,-0.1573,-0.1591,-0.1615,-0.1556,-0.1577,-0.1617,-0.1598,-0.1677,-0.1684,-0.1728,-0.1727,-0.1731,-0.1735,-0.1734,-0.1734,-0.1938,-0.1939,0,0,-0.157,-0.1554,-0.161,-0.1618,-0.1588,-0.1596,-0.1599,-0.1681,-0.1682,-0.1727,-0.1733,-0.1737,-0.1735,-0.1736,-0.1937,-0.1939,0,0,0,-0.1566,-0.1553,-0.1572,-0.1614,-0.1621,-0.1598,-0.1601,-0.1678,-0.1688,-0.1734,-0.1738,-0.1735,-0.1737,-0.1936,-0.1938,-0.199,0,0,0,-0.1565,-0.1551,-0.1571,-0.1561,-0.1619,-0.1641,-0.1596,-0.1681,-0.1691,-0.1738,-0.1735,-0.1738,-0.1934,-0.1937,-0.1985,-0.1986,0,0,0,-0.1554,-0.155,-0.1556,-0.156,-0.1581,-0.1639,-0.1653,-0.1683,-0.1695,-0.1733,-0.1738,-0.1933,-0.1936,-0.1981,-0.1981,-0.1994,0,0,0,-0.1533,-0.1549,-0.1556,-0.1597,-0.1581,-0.1692,-0.1652,-0.172,-0.176,-0.1736,-0.1934,-0.1937,-0.198,-0.1977,-0.1991,-0.1882,-0.1886,0,0,-0.1546,-0.155,-0.1583,-0.1591,-0.171,-0.1685,-0.1809,-0.1826,-0.1821,-0.1907,-0.1911,-0.1987,-0.198,-0.1993,-0.2056,-0.2055,0,0,0,-0.1585,-0.1612,-0.1651,-0.1719,-0.1792,-0.1862,-0.1894,-0.1908,-0.1964,-0.1859,-0.2034,-0.2029,-0.2034,-0.1965,-0.1965,-0.1923,-0.1951,-0.1951,-0.1951,-0.1564,-0.1642,-0.173,-0.1838,-0.1912,-0.2001,-0.2045,-0.2076,-0.2069,-0.2105,-0.2107,-0.22,-0.2131,-0.2129,-0.209,-0.216,-0.216,-0.2161,-0.2161,-0.1616,-0.167,-0.1792,-0.1895,-0.2001,-0.2099,-0.2196,-0.2191,-0.2243,-0.2217,-0.222,-0.2068,-0.2132,-0.209,-0.2165,-0.2164,-0.2164,-0.2163,-0.2163,-0.1598,-0.1636,-0.1713,-0.1867,-0.2,-0.2118,-0.2197,-0.2254,-0.2275,-0.2295,-0.2189,-0.2186,-0.2112,-0.2289,-0.2289,-0.2289,-0.2289,-0.2289,-0.2289,-0.1521,-0.1614,-0.1678,-0.1836,-0.1918,-0.2038,-0.2179,-0.221,-0.2229,-0.2232,-0.223,-0.215,-0.2238,-0.219,-0.2291,-0.2291,-0.229,-0.229,-0.229,-0.1478,-0.1496,-0.1586,-0.1662,-0.1857,-0.1909,-0.2066,-0.2107,-0.2154,-0.2133,-0.2101,-0.2194,-0.2153,-0.2152,-0.2103,-0.2175,-0.2175,-0.2175,-0.2175,-0.1398,-0.1435,-0.1509,-0.1609,-0.1739,-0.1853,-0.1839,-0.1903,-0.1971,-0.1974,-0.2035,-0.1988,-0.1995,-0.1943,-0.1946,-0.1893,-0.1911,-0.191,-0.191,-0.1347,-0.1381,-0.1399,-0.1528,-0.1689,-0.1744,-0.167,-0.1695,-0.1818,-0.1901,-0.2007,-0.2018,-0.1953,-0.1966,-0.1887,-0.1894,-0.1807,0,0]},{"header":{"parameterUnit":"m.s-1","parameterCategory":2,"la1":30.2992,"la2":30.254,"lo1":-89.0895,"lo2":-89.0443,"dy":0.0025,"dx":0.0025,"nx":19,"ny":19,"refTime":"2026-04-03T09:00:00:Z","depth":"0","parameterNumber":3,"parameterNumberName":"V-component_of_CURRENTS"},"data":[0,0,0,-0.0038,-0.0036,0.0054,0.0054,0.0238,0.024,0,0,0,0,0,0,0,0,0,0,0,-0.0072,-0.0072,-0.0038,-0.0036,0.0054,0.0054,0.0238,0.024,0,0,0,0,0,0,0,0,0,0,0,-0.0072,-0.0072,-0.0071,-0.0036,0.0054,0.0054,0.0237,0.0156,0,0,0,0,0,0,0,0,0,0,0.0061,0.0011,-0.0072,-0.0071,-0.0036,0.0053,0.0054,0.0151,0.0161,0.0212,0,0.0214,0,0.0229,0.0252,0.0253,0,0,0,-0.0022,0.0003,0.0029,-0.0071,-0.0035,0.0053,0.0017,0.0156,0.0167,0.0225,0.0217,0.0223,0.0232,0.0253,0.0254,0.0466,0.0467,0,0,-0.0027,-0.005,0.0021,0.0035,-0.0025,0.0014,0.002,0.0162,0.0169,0.0217,0.0227,0.0235,0.0255,0.0256,0.0465,0.0466,0,0,0,-0.0051,-0.0053,-0.0032,0.0028,0.0038,0.0016,0.0023,0.0162,0.0169,0.0229,0.0237,0.0256,0.0258,0.0464,0.0466,0.0394,0,0,0,-0.0053,-0.0068,-0.0035,-0.0046,0.0034,0.0091,0.002,0.0159,0.0176,0.0236,0.0256,0.026,0.0463,0.0465,0.0393,0.0341,0,0,0,-0.0073,-0.007,-0.0064,-0.0048,-0.0015,0.0089,0.0104,0.0163,0.0181,0.0253,0.026,0.0462,0.0465,0.0393,0.0343,0.0368,0,0,0,-0.0092,-0.0102,-0.0065,-0.0067,-0.0016,0.0053,0.0103,0.0162,0.0218,0.0257,0.0463,0.0465,0.0393,0.0343,0.0368,0.0297,0.0291,0,0,-0.0118,-0.0106,-0.0106,-0.0071,-0.0039,0.0042,0.0118,0.0204,0.0278,0.0421,0.0426,0.0393,0.0343,0.0368,0.0423,0.0412,0,0,0,-0.0123,-0.0129,-0.011,-0.0084,-0.0014,0.0063,0.0165,0.0235,0.0355,0.032,0.0458,0.043,0.0447,0.0408,0.04,0.0583,0.0475,0.0475,0.0475,-0.0192,-0.0158,-0.0153,-0.0098,-0.0039,0.0096,0.0172,0.0301,0.0368,0.0423,0.0419,0.0453,0.0413,0.0406,0.0596,0.0488,0.0488,0.0488,0.0488,-0.0253,-0.0255,-0.0193,-0.0182,-0.0074,0.0007,0.0195,0.0261,0.0401,0.044,0.0461,0.0394,0.0392,0.0599,0.0484,0.0485,0.0485,0.0486,0.0486,-0.031,-0.0306,-0.0296,-0.0267,-0.0192,-0.0058,0.0028,0.0175,0.0322,0.035,0.0358,0.0359,0.0498,0.0375,0.0375,0.0375,0.0375,0.0375,0.0375,-0.0378,-0.0362,-0.039,-0.0351,-0.033,-0.0257,-0.007,0.0018,0.0175,0.028,0.0281,0.0548,0.0419,0.0375,0.0373,0.0373,0.0374,0.0374,0.0374,-0.0449,-0.0448,-0.0498,-0.0503,-0.0466,-0.045,-0.0284,-0.0123,0.0014,0.0074,0.0448,0.0271,0.0291,0.0298,0.0254,0.0221,0.0221,0.0221,0.0221,-0.0503,-0.0505,-0.0585,-0.0614,-0.0609,-0.0533,-0.0494,-0.0271,0.0145,0.0382,0.0493,0.0525,0.0522,0.0561,0.0562,0.0527,0.0564,0.0565,0.0566,-0.0552,-0.0575,-0.0644,-0.0675,-0.0672,-0.0641,-0.0617,-0.0373,0.0273,0.0605,0.0769,0.0754,0.0829,0.0811,0.0892,0.0879,0.0828,0,0]}],[{"header":{"parameterUnit":"m.s-1","parameterCategory":2,"la1":30.2992,"la2":30.254,"lo1":-89.0895,"lo2":-89.0443,"dy":0.0025,"dx":0.0025,"nx":19,"ny":19,"refTime":"2026-04-03T09:00:00:Z","depth":"2","parameterNumber":2,"parameterNumberName":"U-component_of_CURRENTS"},"data":[0,0,0,-0.1432,-0.1433,-0.1468,-0.1468,-0.1537,-0.1538,0,0,0,0,0,0,0,0,0,0,0,-0.1417,-0.1417,-0.1432,-0.1433,-0.1468,-0.1468,-0.1537,-0.1538,0,0,0,0,0,0,0,0,0,0,0,-0.1417,-0.1417,-0.1417,-0.1433,-0.1468,-0.1468,-0.1537,-0.1503,0,0,0,0,0,0,0,0,0,0,-0.1466,-0.1442,-0.1417,-0.1417,-0.1433,-0.1468,-0.1468,-0.1501,-0.1505,-0.1531,0,-0.1539,0,-0.1546,-0.1544,-0.1544,0,0,0,-0.1427,-0.1438,-0.1458,-0.1417,-0.1434,-0.1468,-0.145,-0.1503,-0.1508,-0.1537,-0.154,-0.1543,-0.1547,-0.1545,-0.1545,-0.1714,-0.1715,0,0,-0.1425,-0.1413,-0.1455,-0.1461,-0.1448,-0.1449,-0.1451,-0.1506,-0.1507,-0.154,-0.1544,-0.1548,-0.1545,-0.1546,-0.1712,-0.1714,0,0,0,-0.1424,-0.1412,-0.143,-0.1459,-0.1466,-0.145,-0.1453,-0.1504,-0.1513,-0.1545,-0.1549,-0.1546,-0.1547,-0.1711,-0.1713,-0.1765,0,0,0,-0.1422,-0.1412,-0.1429,-0.1421,-0.1465,-0.1481,-0.145,-0.1509,-0.1516,-0.1549,-0.1546,-0.1548,-0.171,-0.1712,-0.176,-0.1747,0,0,0,-0.1414,-0.1411,-0.1419,-0.1421,-0.144,-0.148,-0.1491,-0.151,-0.1519,-0.1544,-0.1548,-0.1709,-0.1712,-0.1757,-0.1742,-0.1768,0,0,0,-0.1396,-0.1411,-0.1418,-0.1451,-0.144,-0.1522,-0.149,-0.1539,-0.1567,-0.1546,-0.171,-0.1713,-0.1755,-0.1739,-0.1765,-0.1638,-0.1641,0,0,-0.1407,-0.1412,-0.1438,-0.1446,-0.1529,-0.1516,-0.1613,-0.1622,-0.1621,-0.1689,-0.1693,-0.1762,-0.1742,-0.1767,-0.1803,-0.18,0,0,0,-0.1437,-0.1456,-0.1485,-0.1534,-0.159,-0.1654,-0.1677,-0.1693,-0.1749,-0.1651,-0.1806,-0.1791,-0.1805,-0.1725,-0.1724,-0.1726,-0.1726,-0.1726,-0.1725,-0.1415,-0.1473,-0.1535,-0.162,-0.1683,-0.1758,-0.18,-0.1835,-0.1832,-0.1875,-0.1868,-0.1964,-0.1884,-0.188,-0.1926,-0.1926,-0.1926,-0.1926,-0.1927,-0.1444,-0.1481,-0.1577,-0.1653,-0.1749,-0.1834,-0.193,-0.1935,-0.1989,-0.1969,-0.1982,-0.1826,-0.1881,-0.1932,-0.1931,-0.193,-0.1929,-0.1929,-0.1929,-0.1422,-0.1449,-0.1508,-0.1626,-0.1739,-0.1852,-0.1927,-0.1985,-0.2018,-0.2037,-0.1939,-0.1935,-0.1947,-0.205,-0.205,-0.205,-0.205,-0.205,-0.205,-0.1356,-0.1426,-0.1467,-0.1594,-0.166,-0.177,-0.1909,-0.1945,-0.1966,-0.1967,-0.1966,-0.2004,-0.2,-0.1955,-0.2052,-0.2051,-0.2051,-0.2051,-0.2051,-0.1309,-0.1326,-0.1382,-0.1436,-0.1587,-0.1626,-0.1785,-0.1831,-0.1886,-0.1861,-0.1929,-0.1931,-0.1889,-0.1888,-0.1842,-0.1902,-0.1902,-0.1902,-0.1902,-0.1238,-0.1266,-0.1302,-0.1366,-0.146,-0.156,-0.1543,-0.1599,-0.1695,-0.1709,-0.1717,-0.1666,-0.1676,-0.1619,-0.1624,-0.1571,-0.1562,-0.1561,-0.1561,-0.1182,-0.1209,-0.1202,-0.1291,-0.1401,-0.1445,-0.1368,-0.1338,-0.1407,-0.155,-0.1681,-0.1875,-0.1821,-0.1828,-0.1756,-0.1759,-0.1679,0,0]},{"header":{"parameterUnit":"m.s-1","parameterCategory":2,"la1":30.2992,"la2":30.254,"lo1":-89.0895,"lo2":-89.0443,"dy":0.0025,"dx":0.0025,"nx":19,"ny":19,"refTime":"2026-04-03T09:00:00:Z","depth":"2","parameterNumber":3,"parameterNumberName":"V-component_of_CURRENTS"},"data":[0,0,0,-0.0092,-0.0091,-0.0007,-0.0007,0.0118,0.0119,0,0,0,0,0,0,0,0,0,0,0,-0.0124,-0.0124,-0.0092,-0.0091,-0.0007,-0.0007,0.0118,0.0119,0,0,0,0,0,0,0,0,0,0,0,-0.0125,-0.0124,-0.0124,-0.009,-0.0007,-0.0007,0.0117,0.0053,0,0,0,0,0,0,0,0,0,0,-0.003,-0.0069,-0.0124,-0.0124,-0.009,-0.0008,-0.0007,0.0049,0.0057,0.0082,0,0.0086,0,0.0103,0.0127,0.0127,0,0,0,-0.008,-0.0076,-0.0051,-0.0124,-0.0089,-0.0008,-0.0042,0.0053,0.0062,0.0092,0.0088,0.0093,0.0105,0.0127,0.0128,0.0256,0.0256,0,0,-0.0085,-0.0107,-0.0057,-0.0046,-0.0078,-0.0045,-0.0039,0.0058,0.0061,0.0088,0.0096,0.0107,0.0128,0.0129,0.0255,0.0256,0,0,0,-0.0105,-0.0111,-0.0088,-0.0051,-0.0039,-0.0043,-0.0036,0.0057,0.0065,0.0097,0.0109,0.0129,0.013,0.0255,0.0255,0.0189,0,0,0,-0.0107,-0.0123,-0.009,-0.0102,-0.0041,0.0007,-0.004,0.0058,0.007,0.0108,0.0129,0.0131,0.0254,0.0255,0.0189,0.0129,0,0,0,-0.0126,-0.0125,-0.0118,-0.0104,-0.0072,0.0006,0.0019,0.0061,0.0076,0.0127,0.0132,0.0254,0.0255,0.0189,0.0131,0.0164,0,0,0,-0.0147,-0.0157,-0.0119,-0.0128,-0.0073,-0.0037,0.0019,0.0057,0.0095,0.0129,0.0254,0.0255,0.019,0.0133,0.0165,0.0118,0.0111,0,0,-0.0174,-0.0161,-0.0167,-0.0131,-0.0131,-0.0047,-0.0014,0.0061,0.0129,0.0224,0.0227,0.0189,0.0132,0.0164,0.0191,0.0181,0,0,0,-0.0186,-0.0198,-0.0189,-0.018,-0.0132,-0.0076,0.0008,0.0067,0.0164,0.0157,0.0234,0.02,0.0222,0.0198,0.0191,0.0261,0.0261,0.0261,0.0261,-0.026,-0.0241,-0.026,-0.0227,-0.019,-0.0088,-0.0028,0.0079,0.0143,0.0191,0.0179,0.0199,0.0174,0.0168,0.0237,0.0237,0.0236,0.0236,0.0236,-0.0335,-0.0352,-0.0318,-0.0328,-0.0252,-0.0203,-0.0052,0.0017,0.013,0.0172,0.0199,0.0169,0.0156,0.0232,0.0232,0.0233,0.0234,0.0234,0.0234,-0.0396,-0.0402,-0.0404,-0.0411,-0.0372,-0.0269,-0.0208,-0.0082,0.0056,0.0079,0.0118,0.0118,0.014,0.012,0.012,0.012,0.012,0.012,0.012,-0.0456,-0.0458,-0.0498,-0.0493,-0.0492,-0.0447,-0.0296,-0.0216,-0.0065,0.0033,0.0034,0.0161,0.0165,0.0137,0.0118,0.0118,0.0118,0.0118,0.0119,-0.0531,-0.0528,-0.0596,-0.0617,-0.0625,-0.0623,-0.0484,-0.0322,-0.0196,-0.0131,0.0037,0.004,0.0061,0.0068,0.004,-0.0003,-0.0003,-0.0003,-0.0003,-0.0579,-0.0585,-0.0679,-0.0731,-0.0757,-0.0702,-0.0649,-0.0442,-0.02,-0.0066,-0.0063,-0.0059,-0.0053,-0.0036,-0.0027,-0.0056,-0.0123,-0.0124,-0.0124,-0.0631,-0.0656,-0.0734,-0.0784,-0.0818,-0.0794,-0.0744,-0.0511,-0.0195,-0.0126,-0.0063,-0.0015,-0.0,0.0006,0.0042,0.0052,0.001,0,0]}],[{"header":{"parameterUnit":"m.s-1","parameterCategory":2,"la1":30.2992,"la2":30.254,"lo1":-89.0895,"lo2":-89.0443,"dy":0.0025,"dx":0.0025,"nx":19,"ny":19,"refTime":"2026-04-03T09:00:00:Z","depth":"4","parameterNumber":2,"parameterNumberName":"U-component_of_CURRENTS"},"data":[0,0,0,-0.1118,-0.112,-0.119,-0.119,-0.1188,-0.1188,0,0,0,0,0,0,0,0,0,0,0,-0.1097,-0.1098,-0.1118,-0.112,-0.119,-0.119,-0.1188,-0.1188,0,0,0,0,0,0,0,0,0,0,0,-0.1097,-0.1098,-0.1099,-0.112,-0.119,-0.119,-0.1188,-0.1156,0,0,0,0,0,0,0,0,0,0,-0.1099,-0.1095,-0.1098,-0.1099,-0.1121,-0.119,-0.119,-0.1155,-0.1158,-0.1133,0,-0.1157,0,-0.1173,-0.1186,-0.1186,0,0,0,-0.1112,-0.1093,-0.1114,-0.1099,-0.1122,-0.119,-0.1156,-0.1157,-0.116,-0.1136,-0.1157,-0.1158,-0.1173,-0.1186,-0.1186,-0.1195,-0.1195,0,0,-0.1108,-0.1102,-0.1112,-0.1116,-0.1156,-0.1154,-0.1158,-0.116,-0.1166,-0.1158,-0.1158,-0.1173,-0.1186,-0.1186,-0.1195,-0.1195,0,0,0,-0.1102,-0.11,-0.1122,-0.1115,-0.1136,-0.1156,-0.1161,-0.1166,-0.1175,-0.1159,-0.1173,-0.1186,-0.1185,-0.1194,-0.1195,-0.1254,0,0,0,-0.11,-0.1097,-0.1121,-0.1117,-0.1137,-0.1164,-0.1167,-0.1175,-0.1176,-0.1173,-0.1186,-0.1185,-0.1194,-0.1195,-0.1251,-0.1236,0,0,0,-0.1091,-0.1096,-0.111,-0.1117,-0.1151,-0.1165,-0.1174,-0.1176,-0.1184,-0.1186,-0.1185,-0.1194,-0.1194,-0.1249,-0.1234,-0.124,0,0,0,-0.1073,-0.1094,-0.111,-0.1139,-0.1151,-0.1185,-0.1175,-0.1203,-0.121,-0.1186,-0.1194,-0.1195,-0.1249,-0.1232,-0.1239,-0.1088,0,0,0,-0.1083,-0.1095,-0.1111,-0.1128,-0.1155,-0.1174,-0.1198,-0.1208,-0.1207,-0.1184,-0.1186,-0.1252,-0.1233,-0.124,-0.1126,0,0,0,0,-0.1104,-0.1113,-0.1127,-0.1151,-0.1179,-0.1193,-0.121,-0.1227,-0.1251,-0.1216,-0.1248,-0.1233,-0.1236,-0.1145,-0.1198,-0.1198,-0.1198,-0.1198,-0.1197,-0.1083,-0.1105,-0.1119,-0.1142,-0.1166,-0.1208,-0.1238,-0.1258,-0.126,-0.1289,-0.1281,-0.1318,-0.1226,-0.13,-0.1301,-0.1301,-0.1301,-0.1301,-0.1301,-0.1069,-0.1065,-0.1097,-0.112,-0.1147,-0.1172,-0.1234,-0.1273,-0.1321,-0.1317,-0.1319,-0.1212,-0.1307,-0.1306,-0.1305,-0.1305,-0.1304,-0.1304,-0.1303,-0.1033,-0.1029,-0.106,-0.1078,-0.1104,-0.1149,-0.1183,-0.127,-0.1335,-0.1371,-0.1255,-0.1336,-0.1331,-0.1378,-0.1378,-0.1378,-0.1378,-0.1378,-0.1378,-0.097,-0.0996,-0.0997,-0.1026,-0.1029,-0.1056,-0.1159,-0.1197,-0.1286,-0.1267,-0.1372,-0.1342,-0.134,-0.1333,-0.1378,-0.1378,-0.1378,-0.1378,-0.1378,-0.09,-0.0924,-0.0913,-0.0915,-0.0913,-0.0918,-0.1029,-0.1096,-0.1131,-0.1137,-0.1213,-0.1221,-0.1172,-0.1173,-0.1159,-0.1154,-0.1152,-0.115,0,-0.0837,-0.0852,-0.082,-0.0795,-0.0764,-0.0824,-0.0832,-0.0904,-0.1015,-0.0997,-0.1119,-0.1201,-0.1208,-0.1149,-0.1147,-0.1127,0,0,0,-0.077,-0.0776,-0.0722,-0.0724,-0.0685,-0.0733,-0.0826,-0.0841,-0.1,-0.0999,-0.1104,-0.1116,-0.1234,-0.1378,-0.1321,-0.1318,-0.1304,0,0]},{"header":{"parameterUnit":"m.s-1","parameterCategory":2,"la1":30.2992,"la2":30.254,"lo1":-89.0895,"lo2":-89.0443,"dy":0.0025,"dx":0.0025,"nx":19,"ny":19,"refTime":"2026-04-03T09:00:00:Z","depth":"4","parameterNumber":3,"parameterNumberName":"V-component_of_CURRENTS"},"data":[0,0,0,-0.0067,-0.0066,-0.0005,-0.0005,0.001,0.001,0,0,0,0,0,0,0,0,0,0,0,-0.0092,-0.0092,-0.0067,-0.0065,-0.0005,-0.0005,0.001,0.001,0,0,0,0,0,0,0,0,0,0,0,-0.0092,-0.0092,-0.0091,-0.0065,-0.0005,-0.0005,0.001,-0.0019,0,0,0,0,0,0,0,0,0,0,-0.0069,-0.0088,-0.0092,-0.0091,-0.0065,-0.0005,-0.0005,-0.0019,-0.0017,-0.0037,0,-0.0032,0,-0.0013,0.0009,0.0009,0,0,0,-0.006,-0.009,-0.0071,-0.0091,-0.0064,-0.0005,-0.0031,-0.0017,-0.0015,-0.0034,-0.0031,-0.003,-0.0013,0.0009,0.0009,-0.0084,-0.0085,0,0,-0.0063,-0.0082,-0.0073,-0.007,-0.0056,-0.0033,-0.0029,-0.0015,-0.0019,-0.0031,-0.0029,-0.0012,0.0009,0.0009,-0.0083,-0.0084,0,0,0,-0.0076,-0.0085,-0.0065,-0.0071,-0.0057,-0.0031,-0.0027,-0.0019,-0.0012,-0.0029,-0.0012,0.0009,0.0009,-0.0082,-0.0083,-0.0132,0,0,0,-0.0078,-0.0093,-0.0067,-0.0078,-0.0057,-0.0029,-0.0031,-0.0013,-0.001,-0.0012,0.0009,0.0009,-0.0081,-0.0083,-0.0128,-0.016,0,0,0,-0.0093,-0.0094,-0.0089,-0.0079,-0.0054,-0.0028,-0.002,-0.0011,-0.0001,0.0009,0.0008,-0.008,-0.0082,-0.0125,-0.0154,-0.0153,0,0,0,-0.0112,-0.0122,-0.0089,-0.0107,-0.0055,-0.007,-0.002,-0.0016,-0.0012,0.0009,-0.0081,-0.0083,-0.0124,-0.0151,-0.0151,-0.0116,0,0,0,-0.0137,-0.0126,-0.0139,-0.0108,-0.0146,-0.0078,-0.0126,-0.0084,-0.0056,-0.0086,-0.0088,-0.013,-0.0154,-0.0153,-0.0245,0,0,0,0,-0.0156,-0.0173,-0.0178,-0.0191,-0.0182,-0.0195,-0.0152,-0.0138,-0.0139,-0.0063,-0.016,-0.0175,-0.0171,-0.0146,-0.0094,-0.0094,-0.0093,-0.0093,-0.0093,-0.0224,-0.0227,-0.0271,-0.0283,-0.0297,-0.0278,-0.0275,-0.0258,-0.0216,-0.023,-0.0237,-0.0304,-0.0283,-0.0257,-0.0257,-0.0257,-0.0258,-0.0258,-0.0258,-0.03,-0.0331,-0.0353,-0.0393,-0.0406,-0.0438,-0.0418,-0.0374,-0.0361,-0.0328,-0.032,-0.0229,-0.0264,-0.0262,-0.0262,-0.0261,-0.0261,-0.026,-0.026,-0.0353,-0.0369,-0.0395,-0.0466,-0.0518,-0.0521,-0.0538,-0.0491,-0.0424,-0.0414,-0.0351,-0.0335,-0.0302,-0.0392,-0.0393,-0.0393,-0.0393,-0.0393,-0.0393,-0.0387,-0.0417,-0.0473,-0.0538,-0.058,-0.0617,-0.0597,-0.056,-0.0486,-0.0419,-0.042,-0.0348,-0.0344,-0.0311,-0.0396,-0.0395,-0.0395,-0.0395,-0.0394,-0.0443,-0.0448,-0.053,-0.0578,-0.0668,-0.0685,-0.0678,-0.0573,-0.0526,-0.0453,-0.0406,-0.0405,-0.0376,-0.0371,-0.0337,-0.0433,-0.0433,-0.0432,0,-0.047,-0.0483,-0.0582,-0.0658,-0.0717,-0.0726,-0.0664,-0.0605,-0.0499,-0.0492,-0.0522,-0.0475,-0.0471,-0.0444,-0.0439,-0.0403,0,0,0,-0.0508,-0.053,-0.0603,-0.0674,-0.0737,-0.0674,-0.0644,-0.0594,-0.0527,-0.0449,-0.0429,-0.043,-0.0431,-0.0403,-0.0356,-0.035,-0.0294,0,0]}]]